Time,TemperatureF,DewpointF,PressureIn,WindDirection,WindDirectionDegrees,WindSpeedMPH,WindSpeedGustMPH,Humidity,HourlyPrecipIn,Conditions,Clouds,dailyrainin,SolarRadiationWatts/m^2,SoftwareType,DateUTC
2013-02-07 00:00:00,30.4,16.2,30.01,NW,315,2.0,11.0,55,0.00,,,0.00,0,WeatherCatV1.12B45,2013-02-07 07:00:00,
2013-02-07 00:05:00,30.4,16.2,30.01,NW,315,2.0,11.0,55,0.00,,,0.00,0,WeatherCatV1.12B45,2013-02-07 07:05:00,
2013-02-07 00:10:00,30.1,15.9,30.02,WSW,248,3.0,12.0,55,0.00,,,0.00,0,WeatherCatV1.12B45,2013-02-07 07:10:00,
2013-02-07 00:15:00,30.1,15.9,30.02,WSW,248,3.0,12.0,55,0.00,,,0.00,0,WeatherCatV1.12B45,2013-02-07 07:15:00,
2013-02-07 00:20:00,30.1,15.9,30.02,WSW,248,3.0,12.0,55,0.00,,,0.00,0,WeatherCatV1.12B45,2013-02-07 07:20:00,
2013-02-07 00:25:00,29.4,16.5,30.03,WSW,248,1.0,5.0,58,0.00,,,0.00,0,WeatherCatV1.12B45,2013-02-07 07:25:00,
2013-02-07 00:30:00,29.4,16.5,30.03,WSW,248,1.0,5.0,58,0.00,,,0.00,0,WeatherCatV1.12B45,2013-02-07 07:30:00,
2013-02-07 00:35:00,29.4,16.5,30.03,WSW,248,1.0,5.0,58,0.00,,,0.00,0,WeatherCatV1.12B45,2013-02-07 07:35:00,
2013-02-07 00:40:00,28.8,16.3,30.03,West,270,1.0,6.0,59,0.00,,,0.00,0,WeatherCatV1.12B45,2013-02-07 07:40:00,
2013-02-07 00:45:00,28.8,16.3,30.03,West,270,1.0,6.0,59,0.00,,,0.00,0,WeatherCatV1.12B45,2013-02-07 07:45:00,
2013-02-07 00:50:00,28.8,16.3,30.03,West,270,1.0,6.0,59,0.00,,,0.00,0,WeatherCatV1.12B45,2013-02-07 07:50:00,
2013-02-07 00:55:00,27.9,16.6,30.04,WSW,248,1.0,7.0,62,0.00,,,0.00,0,WeatherCatV1.12B45,2013-02-07 07:55:00,
2013-02-07 01:00:00,27.9,16.6,30.04,WSW,248,1.0,7.0,62,0.00,,,0.00,0,WeatherCatV1.12B45,2013-02-07 08:00:00,
2013-02-07 01:05:00,27.9,16.6,30.04,WSW,248,1.0,7.0,62,0.00,,,0.00,0,WeatherCatV1.12B45,2013-02-07 08:05:00,
2013-02-07 01:10:00,27.6,16.3,30.04,WSW,248,2.0,8.0,62,0.00,,,0.00,0,WeatherCatV1.12B45,2013-02-07 08:10:00,
2013-02-07 01:15:00,27.6,16.3,30.04,WSW,248,2.0,8.0,62,0.00,,,0.00,0,WeatherCatV1.12B45,2013-02-07 08:15:00,
2013-02-07 01:20:00,27.6,16.3,30.04,WSW,248,2.0,8.0,62,0.00,,,0.00,0,WeatherCatV1.12B45,2013-02-07 08:20:00,
2013-02-07 01:25:00,27.2,16.3,30.04,NNW,338,0.0,4.0,63,0.00,,,0.00,0,WeatherCatV1.12B45,2013-02-07 08:25:00,
2013-02-07 01:30:00,27.2,16.3,30.04,NNW,338,0.0,4.0,63,0.00,,,0.00,0,WeatherCatV1.12B45,2013-02-07 08:30:00,
2013-02-07 01:35:00,27.2,16.3,30.04,NNW,338,0.0,4.0,63,0.00,,,0.00,0,WeatherCatV1.12B45,2013-02-07 08:35:00,
2013-02-07 01:40:00,26.4,15.9,30.04,SW,225,0.0,5.0,64,0.00,,,0.00,0,WeatherCatV1.12B45,2013-02-07 08:40:00,
2013-02-07 01:45:00,26.4,15.9,30.04,SW,225,0.0,5.0,64,0.00,,,0.00,0,WeatherCatV1.12B45,2013-02-07 08:45:00,
2013-02-07 01:50:00,26.4,15.9,30.04,SW,225,0.0,5.0,64,0.00,,,0.00,0,WeatherCatV1.12B45,2013-02-07 08:50:00,
2013-02-07 01:55:00,26.3,17.2,30.04,SW,225,0.0,3.0,68,0.00,,,0.00,0,WeatherCatV1.12B45,2013-02-07 08:55:00,
2013-02-07 02:00:00,26.3,17.2,30.04,SW,225,0.0,3.0,68,0.00,,,0.00,0,WeatherCatV1.12B45,2013-02-07 09:00:00,
2013-02-07 02:05:00,26.3,17.2,30.04,SW,225,0.0,3.0,68,0.00,,,0.00,0,WeatherCatV1.12B45,2013-02-07 09:05:00,
2013-02-07 02:10:00,25.4,15.7,30.05,NNW,338,1.0,7.0,66,0.00,,,0.00,0,WeatherCatV1.12B45,2013-02-07 09:10:00,
2013-02-07 02:15:00,25.4,15.7,30.05,NNW,338,1.0,7.0,66,0.00,,,0.00,0,WeatherCatV1.12B45,2013-02-07 09:15:00,
2013-02-07 02:20:00,25.4,15.7,30.05,NNW,338,1.0,7.0,66,0.00,,,0.00,0,WeatherCatV1.12B45,2013-02-07 09:20:00,
2013-02-07 02:25:00,23.6,14.6,30.05,NNW,338,1.0,5.0,68,0.00,,,0.00,0,WeatherCatV1.12B45,2013-02-07 09:25:00,
2013-02-07 02:30:00,23.6,14.6,30.05,NNW,338,1.0,5.0,68,0.00,,,0.00,0,WeatherCatV1.12B45,2013-02-07 09:30:00,
2013-02-07 02:35:00,23.6,14.6,30.05,NNW,338,1.0,5.0,68,0.00,,,0.00,0,WeatherCatV1.12B45,2013-02-07 09:35:00,
2013-02-07 02:40:00,23.0,15.4,30.05,NNW,338,0.0,3.0,72,0.00,,,0.00,0,WeatherCatV1.12B45,2013-02-07 09:40:00,
2013-02-07 02:45:00,23.0,15.4,30.05,NNW,338,0.0,3.0,72,0.00,,,0.00,0,WeatherCatV1.12B45,2013-02-07 09:45:00,
2013-02-07 02:50:00,23.0,15.4,30.05,NNW,338,0.0,3.0,72,0.00,,,0.00,0,WeatherCatV1.12B45,2013-02-07 09:50:00,
2013-02-07 02:55:00,22.7,15.1,30.05,NW,315,0.0,5.0,72,0.00,,,0.00,0,WeatherCatV1.12B45,2013-02-07 09:55:00,
2013-02-07 03:00:00,22.7,15.1,30.05,NW,315,0.0,5.0,72,0.00,,,0.00,0,WeatherCatV1.12B45,2013-02-07 10:00:00,
2013-02-07 03:05:00,22.7,15.1,30.05,NW,315,0.0,5.0,72,0.00,,,0.00,0,WeatherCatV1.12B45,2013-02-07 10:05:00,
2013-02-07 03:10:00,21.9,14.0,30.05,NW,315,1.0,3.0,71,0.00,,,0.00,0,WeatherCatV1.12B45,2013-02-07 10:10:00,
2013-02-07 03:15:00,21.9,14.0,30.05,NW,315,1.0,3.0,71,0.00,,,0.00,0,WeatherCatV1.12B45,2013-02-07 10:15:00,
2013-02-07 03:20:00,21.9,14.0,30.05,NW,315,1.0,3.0,71,0.00,,,0.00,0,WeatherCatV1.12B45,2013-02-07 10:20:00,
2013-02-07 03:25:00,20.2,12.3,30.05,NW,315,2.0,5.0,71,0.00,,,0.00,0,WeatherCatV1.12B45,2013-02-07 10:25:00,
2013-02-07 03:30:00,20.2,12.3,30.05,NW,315,2.0,5.0,71,0.00,,,0.00,0,WeatherCatV1.12B45,2013-02-07 10:30:00,
2013-02-07 03:35:00,20.2,12.3,30.05,NW,315,2.0,5.0,71,0.00,,,0.00,0,WeatherCatV1.12B45,2013-02-07 10:35:00,
2013-02-07 03:40:00,19.4,12.2,30.05,NW,315,0.0,4.0,73,0.00,,,0.00,0,WeatherCatV1.12B45,2013-02-07 10:40:00,
2013-02-07 03:45:00,19.4,12.2,30.05,NW,315,0.0,4.0,73,0.00,,,0.00,0,WeatherCatV1.12B45,2013-02-07 10:45:00,
2013-02-07 03:50:00,19.4,12.2,30.05,NW,315,0.0,4.0,73,0.00,,,0.00,0,WeatherCatV1.12B45,2013-02-07 10:50:00,
2013-02-07 03:55:00,18.6,11.7,30.05,NW,315,1.0,5.0,74,0.00,,,0.00,0,WeatherCatV1.12B45,2013-02-07 10:55:00,
2013-02-07 04:00:00,18.6,11.7,30.05,NW,315,1.0,5.0,74,0.00,,,0.00,0,WeatherCatV1.12B45,2013-02-07 11:00:00,
2013-02-07 04:05:00,18.6,11.7,30.05,NW,315,1.0,5.0,74,0.00,,,0.00,0,WeatherCatV1.12B45,2013-02-07 11:05:00,
2013-02-07 04:10:00,18.8,12.5,30.05,NW,315,1.0,6.0,76,0.00,,,0.00,0,WeatherCatV1.12B45,2013-02-07 11:10:00,
2013-02-07 04:15:00,18.8,12.5,30.05,NW,315,1.0,6.0,76,0.00,,,0.00,0,WeatherCatV1.12B45,2013-02-07 11:15:00,
2013-02-07 04:28:00,18.8,12.5,30.05,NW,315,1.0,6.0,76,0.00,,,0.00,0,WeatherCatV1.12B45,2013-02-07 11:28:00,
2013-02-07 04:33:00,17.2,10.4,30.06,NW,312,0.0,0.0,74,0.00,,,0.00,0,WeatherCatV1.12B45,2013-02-07 11:33:00,
2013-02-07 04:38:00,16.9,9.8,30.06,NW,312,3.0,3.0,73,0.00,,,0.00,0,WeatherCatV1.12B45,2013-02-07 11:38:00,
2013-02-07 04:43:00,16.2,9.4,30.06,NW,312,2.0,2.0,74,0.00,,,0.00,0,WeatherCatV1.12B45,2013-02-07 11:43:00,
2013-02-07 04:48:00,16.1,9.0,30.06,NW,312,2.0,5.0,73,0.00,,,0.00,0,WeatherCatV1.12B45,2013-02-07 11:48:00,
2013-02-07 04:53:00,15.7,9.2,30.06,NW,312,0.0,2.0,75,0.00,,,0.00,0,WeatherCatV1.12B45,2013-02-07 11:53:00,
2013-02-07 04:58:00,15.9,9.1,30.06,NW,312,1.0,3.0,74,0.00,,,0.00,0,WeatherCatV1.12B45,2013-02-07 11:58:00,
2013-02-07 05:03:00,15.9,8.8,30.07,NW,312,2.0,5.0,73,0.00,,,0.00,0,WeatherCatV1.12B45,2013-02-07 12:03:00,
2013-02-07 05:08:00,15.4,7.7,30.07,NW,312,2.0,4.0,71,0.00,,,0.00,0,WeatherCatV1.12B45,2013-02-07 12:08:00,
2013-02-07 05:13:00,15.2,8.1,30.07,NW,312,0.0,0.0,73,0.00,,,0.00,0,WeatherCatV1.12B45,2013-02-07 12:13:00,
2013-02-07 05:18:00,14.9,8.4,30.08,NW,312,0.0,0.0,75,0.00,,,0.00,0,WeatherCatV1.12B45,2013-02-07 12:18:00,
2013-02-07 05:23:00,15.4,8.3,30.08,WNW,292,1.0,7.0,73,0.00,,,0.00,0,WeatherCatV1.12B45,2013-02-07 12:23:00,
2013-02-07 05:28:00,16.1,8.4,30.08,WNW,292,0.0,0.0,71,0.00,,,0.00,0,WeatherCatV1.12B45,2013-02-07 12:28:00,
2013-02-07 05:33:00,15.9,7.9,30.08,WNW,292,6.0,7.0,70,0.00,,,0.00,0,WeatherCatV1.12B45,2013-02-07 12:33:00,
2013-02-07 05:38:00,15.7,7.7,30.08,WNW,296,6.0,7.0,70,0.00,,,0.00,0,WeatherCatV1.12B45,2013-02-07 12:38:00,
2013-02-07 05:43:00,16.1,7.8,30.08,NW,315,5.0,5.0,69,0.00,,,0.00,0,WeatherCatV1.12B45,2013-02-07 12:43:00,
2013-02-07 05:48:00,15.7,7.0,30.08,NW,315,0.0,2.0,68,0.00,,,0.00,0,WeatherCatV1.12B45,2013-02-07 12:48:00,
2013-02-07 05:53:00,15.9,6.9,30.08,NW,305,3.0,6.0,67,0.00,,,0.00,0,WeatherCatV1.12B45,2013-02-07 12:53:00,
2013-02-07 05:58:00,16.2,6.5,30.08,NW,305,3.0,5.0,65,0.00,,,0.00,0,WeatherCatV1.12B45,2013-02-07 12:58:00,
2013-02-07 06:03:00,16.2,6.5,30.08,NW,312,0.0,3.0,65,0.00,,,0.00,0,WeatherCatV1.12B45,2013-02-07 13:03:00,
2013-02-07 06:08:00,16.1,6.4,30.08,NW,312,0.0,0.0,65,0.00,,,0.00,0,WeatherCatV1.12B45,2013-02-07 13:08:00,
2013-02-07 06:13:00,15.7,5.7,30.08,NW,312,1.0,5.0,64,0.00,,,0.00,0,WeatherCatV1.12B45,2013-02-07 13:13:00,
2013-02-07 06:18:00,15.7,5.4,30.08,NW,312,1.0,3.0,63,0.00,,,0.00,0,WeatherCatV1.12B45,2013-02-07 13:18:00,
2013-02-07 06:23:00,15.2,5.2,30.08,NW,312,4.0,6.0,64,0.00,,,0.00,0,WeatherCatV1.12B45,2013-02-07 13:23:00,
2013-02-07 06:28:00,14.6,5.0,30.08,NW,312,0.0,0.0,65,0.00,,,0.00,0,WeatherCatV1.12B45,2013-02-07 13:28:00,
2013-02-07 06:33:00,14.1,4.5,30.09,NW,312,0.0,3.0,65,0.00,,,0.00,0,WeatherCatV1.12B45,2013-02-07 13:33:00,
2013-02-07 06:38:00,14.0,3.8,30.09,NW,312,0.0,0.0,63,0.00,,,0.00,0,WeatherCatV1.12B45,2013-02-07 13:38:00,
2013-02-07 06:43:00,13.6,4.1,30.09,NW,312,2.0,5.0,65,0.00,,,0.00,0,WeatherCatV1.12B45,2013-02-07 13:43:00,
2013-02-07 06:48:00,13.1,3.9,30.09,NW,312,0.0,2.0,66,0.00,,,0.00,0,WeatherCatV1.12B45,2013-02-07 13:48:00,
2013-02-07 06:53:00,12.6,3.8,30.09,NW,312,0.0,0.0,67,0.00,,,0.00,0,WeatherCatV1.12B45,2013-02-07 13:53:00,
2013-02-07 06:58:00,12.4,3.2,30.09,NW,312,1.0,3.0,66,0.00,,,0.00,0,WeatherCatV1.12B45,2013-02-07 13:58:00,
2013-02-07 07:03:00,12.4,3.2,30.10,NW,312,2.0,5.0,66,0.00,,,0.00,5,WeatherCatV1.12B45,2013-02-07 14:03:00,
2013-02-07 07:08:00,12.4,3.6,30.10,NW,312,1.0,2.0,67,0.00,,,0.00,9,WeatherCatV1.12B45,2013-02-07 14:08:00,
2013-02-07 07:13:00,12.4,3.2,30.10,NW,312,0.0,0.0,66,0.00,,,0.00,11,WeatherCatV1.12B45,2013-02-07 14:13:00,
2013-02-07 07:18:00,12.4,3.6,30.11,NW,312,0.0,0.0,67,0.00,,,0.00,12,WeatherCatV1.12B45,2013-02-07 14:18:00,
2013-02-07 07:23:00,12.4,3.9,30.11,NW,312,0.0,0.0,68,0.00,,,0.00,14,WeatherCatV1.12B45,2013-02-07 14:23:00,
2013-02-07 07:28:00,12.4,3.9,30.11,NW,312,0.0,0.0,68,0.00,,,0.00,16,WeatherCatV1.12B45,2013-02-07 14:28:00,
2013-02-07 07:33:00,13.1,4.6,30.11,NW,312,0.0,0.0,68,0.00,,,0.00,79,WeatherCatV1.12B45,2013-02-07 14:33:00,
2013-02-07 07:38:00,14.1,4.5,30.11,WNW,291,4.0,9.0,65,0.00,,,0.00,99,WeatherCatV1.12B45,2013-02-07 14:38:00,
2013-02-07 07:43:00,16.4,3.9,30.11,WNW,292,10.0,12.0,57,0.00,,,0.00,118,WeatherCatV1.12B45,2013-02-07 14:43:00,
2013-02-07 07:48:00,18.1,3.9,30.12,WNW,289,7.0,11.0,53,0.00,,,0.00,135,WeatherCatV1.12B45,2013-02-07 14:48:00,
2013-02-07 07:53:00,19.2,4.1,30.12,West,275,0.0,6.0,51,0.00,,,0.00,151,WeatherCatV1.12B45,2013-02-07 14:53:00,
2013-02-07 07:58:00,20.2,4.1,30.12,West,277,3.0,7.0,49,0.00,,,0.00,171,WeatherCatV1.12B45,2013-02-07 14:58:00,
2013-02-07 08:03:00,21.1,4.1,30.12,West,275,0.0,0.0,47,0.00,,,0.00,183,WeatherCatV1.12B45,2013-02-07 15:03:00,
2013-02-07 08:08:00,21.9,3.9,30.12,West,270,1.0,3.0,45,0.00,,,0.00,183,WeatherCatV1.12B45,2013-02-07 15:08:00,
2013-02-07 08:13:00,22.5,5.3,30.12,SW,216,3.0,3.0,47,0.00,,,0.00,199,WeatherCatV1.12B45,2013-02-07 15:13:00,
2013-02-07 08:18:00,23.3,6.1,30.12,SSW,213,0.0,0.0,47,0.00,,,0.00,215,WeatherCatV1.12B45,2013-02-07 15:18:00,
2013-02-07 08:23:00,24.2,6.0,30.12,SW,215,0.0,0.0,45,0.00,,,0.00,230,WeatherCatV1.12B45,2013-02-07 15:23:00,
2013-02-07 08:28:00,24.4,5.7,30.12,SW,215,0.0,0.0,44,0.00,,,0.00,245,WeatherCatV1.12B45,2013-02-07 15:28:00,
2013-02-07 08:33:00,25.1,4.8,30.13,SW,215,0.0,0.0,41,0.00,,,0.00,262,WeatherCatV1.12B45,2013-02-07 15:33:00,
2013-02-07 08:38:00,25.4,5.0,30.13,SW,215,1.0,3.0,41,0.00,,,0.00,278,WeatherCatV1.12B45,2013-02-07 15:38:00,
2013-02-07 08:43:00,25.6,7.2,30.13,SSW,203,3.0,8.0,45,0.00,,,0.00,290,WeatherCatV1.12B45,2013-02-07 15:43:00,
2013-02-07 08:48:00,25.6,6.2,30.13,SSW,206,1.0,6.0,43,0.00,,,0.00,308,WeatherCatV1.12B45,2013-02-07 15:48:00,
2013-02-07 08:53:00,25.8,5.9,30.13,SSW,205,4.0,6.0,42,0.00,,,0.00,322,WeatherCatV1.12B45,2013-02-07 15:53:00,
2013-02-07 08:58:00,26.0,5.6,30.13,SSW,206,3.0,6.0,41,0.00,,,0.00,338,WeatherCatV1.12B45,2013-02-07 15:58:00,
2013-02-07 09:03:00,26.3,7.4,30.13,SSW,205,0.0,3.0,44,0.00,,,0.00,352,WeatherCatV1.12B45,2013-02-07 16:03:00,
2013-02-07 09:08:00,27.0,7.0,30.13,SSW,205,0.0,0.0,42,0.00,,,0.00,366,WeatherCatV1.12B45,2013-02-07 16:08:00,
2013-02-07 09:13:00,27.6,5.4,30.13,SSW,205,0.0,1.0,38,0.00,,,0.00,350,WeatherCatV1.12B45,2013-02-07 16:13:00,
2013-02-07 09:18:00,28.2,7.6,30.13,SSW,205,0.0,3.0,41,0.00,,,0.00,396,WeatherCatV1.12B45,2013-02-07 16:18:00,
2013-02-07 09:23:00,29.0,8.8,30.13,SSW,200,6.0,6.0,42,0.00,,,0.00,408,WeatherCatV1.12B45,2013-02-07 16:23:00,
2013-02-07 09:28:00,29.0,8.3,30.13,SSW,192,6.0,6.0,41,0.00,,,0.00,422,WeatherCatV1.12B45,2013-02-07 16:28:00,
2013-02-07 09:33:00,29.0,8.3,30.12,South,191,2.0,5.0,41,0.00,,,0.00,435,WeatherCatV1.12B45,2013-02-07 16:33:00,
2013-02-07 09:38:00,29.0,9.3,30.12,South,191,1.0,5.0,43,0.00,,,0.00,447,WeatherCatV1.12B45,2013-02-07 16:38:00,
2013-02-07 09:43:00,29.5,9.3,30.12,SSE,164,3.0,5.0,42,0.00,,,0.00,459,WeatherCatV1.12B45,2013-02-07 16:43:00,
2013-02-07 09:48:00,29.7,8.9,30.13,SSE,161,2.0,7.0,41,0.00,,,0.00,470,WeatherCatV1.12B45,2013-02-07 16:48:00,
2013-02-07 09:53:00,30.1,9.8,30.13,SSE,161,5.0,6.0,42,0.00,,,0.00,482,WeatherCatV1.12B45,2013-02-07 16:53:00,
2013-02-07 09:58:00,30.3,10.0,30.13,SSE,160,3.0,6.0,42,0.00,,,0.00,493,WeatherCatV1.12B45,2013-02-07 16:58:00,
2013-02-07 10:03:00,30.4,9.5,30.13,SSE,154,5.0,6.0,41,0.00,,,0.00,505,WeatherCatV1.12B45,2013-02-07 17:03:00,
2013-02-07 10:08:00,30.3,10.0,30.13,SSE,151,0.0,6.0,42,0.00,,,0.00,516,WeatherCatV1.12B45,2013-02-07 17:08:00,
2013-02-07 10:13:00,31.0,10.1,30.13,SSE,151,4.0,7.0,41,0.00,,,0.00,524,WeatherCatV1.12B45,2013-02-07 17:13:00,
2013-02-07 10:18:00,31.2,10.3,30.13,SSE,152,3.0,6.0,41,0.00,,,0.00,535,WeatherCatV1.12B45,2013-02-07 17:18:00,
2013-02-07 10:23:00,31.3,10.4,30.13,SSE,151,5.0,7.0,41,0.00,,,0.00,544,WeatherCatV1.12B45,2013-02-07 17:23:00,
2013-02-07 10:28:00,31.6,10.6,30.13,SE,133,6.0,7.0,41,0.00,,,0.00,551,WeatherCatV1.12B45,2013-02-07 17:28:00,
2013-02-07 10:33:00,32.4,9.7,30.13,SE,127,6.0,6.0,38,0.00,,,0.00,558,WeatherCatV1.12B45,2013-02-07 17:33:00,
2013-02-07 10:38:00,32.8,10.0,30.13,SE,137,5.0,6.0,38,0.00,,,0.00,567,WeatherCatV1.12B45,2013-02-07 17:38:00,
2013-02-07 10:43:00,33.1,9.7,30.13,SE,136,2.0,4.0,37,0.00,,,0.00,577,WeatherCatV1.12B45,2013-02-07 17:43:00,
2013-02-07 10:48:00,33.5,10.0,30.13,SE,138,5.0,6.0,37,0.00,,,0.00,582,WeatherCatV1.12B45,2013-02-07 17:48:00,
2013-02-07 10:52:00,33.8,9.1,30.13,SE,140,2.0,7.0,35,0.00,,,0.00,589,WeatherCatV1.12B45,2013-02-07 17:52:00,
2013-02-07 10:57:00,34.1,10.0,30.13,SE,130,6.0,8.0,36,0.00,,,0.00,596,WeatherCatV1.12B45,2013-02-07 17:57:00,
2013-02-07 11:02:00,34.6,9.8,30.13,SE,131,6.0,6.0,35,0.00,,,0.00,602,WeatherCatV1.12B45,2013-02-07 18:02:00,
2013-02-07 11:07:00,34.9,8.8,30.13,ESE,123,3.0,8.0,33,0.00,,,0.00,607,WeatherCatV1.12B45,2013-02-07 18:07:00,
2013-02-07 11:12:00,35.0,9.5,30.13,ESE,123,5.0,5.0,34,0.00,,,0.00,612,WeatherCatV1.12B45,2013-02-07 18:12:00,
2013-02-07 11:17:00,35.6,10.0,30.12,SE,124,6.0,7.0,34,0.00,,,0.00,618,WeatherCatV1.12B45,2013-02-07 18:17:00,
2013-02-07 11:22:00,35.8,9.5,30.12,SE,124,0.0,5.0,33,0.00,,,0.00,621,WeatherCatV1.12B45,2013-02-07 18:22:00,
2013-02-07 11:27:00,36.3,9.3,30.12,SE,137,0.0,6.0,32,0.00,,,0.00,626,WeatherCatV1.12B45,2013-02-07 18:27:00,
2013-02-07 11:32:00,36.2,9.2,30.12,SSE,157,10.0,10.0,32,0.00,,,0.00,630,WeatherCatV1.12B45,2013-02-07 18:32:00,
2013-02-07 11:38:00,36.5,9.5,30.12,SE,145,4.0,8.0,32,0.00,,,0.00,633,WeatherCatV1.12B45,2013-02-07 18:38:00,
2013-02-07 11:42:00,36.8,9.0,30.12,SE,136,6.0,6.0,31,0.00,,,0.00,635,WeatherCatV1.12B45,2013-02-07 18:42:00,
2013-02-07 11:48:00,37.3,8.0,30.11,SE,134,4.0,5.0,29,0.00,,,0.00,640,WeatherCatV1.12B45,2013-02-07 18:48:00,
2013-02-07 11:52:00,38.2,8.8,30.11,SE,128,3.0,3.0,29,0.00,,,0.00,640,WeatherCatV1.12B45,2013-02-07 18:52:00,
2013-02-07 11:57:00,38.6,7.5,30.11,ESE,116,4.0,11.0,27,0.00,,,0.00,644,WeatherCatV1.12B45,2013-02-07 18:57:00,
2013-02-07 12:02:00,38.6,8.3,30.11,ESE,110,2.0,12.0,28,0.00,,,0.00,644,WeatherCatV1.12B45,2013-02-07 19:02:00,
2013-02-07 12:08:00,39.2,8.9,30.11,East,82,4.0,6.0,28,0.00,,,0.00,646,WeatherCatV1.12B45,2013-02-07 19:08:00,
2013-02-07 12:12:00,39.6,7.6,30.11,East,83,5.0,6.0,26,0.00,,,0.00,648,WeatherCatV1.12B45,2013-02-07 19:12:00,
2013-02-07 12:17:00,39.5,7.5,30.10,SE,126,6.0,6.0,26,0.00,,,0.00,646,WeatherCatV1.12B45,2013-02-07 19:17:00,
2013-02-07 12:23:00,39.3,5.6,30.10,ESE,102,3.0,7.0,24,0.00,,,0.00,646,WeatherCatV1.12B45,2013-02-07 19:23:00,
2013-02-07 12:27:00,39.9,7.0,30.10,ESE,104,4.0,4.0,25,0.00,,,0.00,644,WeatherCatV1.12B45,2013-02-07 19:27:00,
2013-02-07 12:33:00,40.5,6.6,30.10,ESE,104,5.0,7.0,24,0.00,,,0.00,644,WeatherCatV1.12B45,2013-02-07 19:33:00,
2013-02-07 12:37:00,40.9,6.0,30.10,ESE,112,5.0,9.0,23,0.00,,,0.00,640,WeatherCatV1.12B45,2013-02-07 19:37:00,
2013-02-07 12:43:00,40.9,5.0,30.10,ESE,112,6.0,8.0,22,0.00,,,0.00,640,WeatherCatV1.12B45,2013-02-07 19:43:00,
2013-02-07 12:48:00,41.1,5.2,30.09,ESE,103,0.0,6.0,22,0.00,,,0.00,637,WeatherCatV1.12B45,2013-02-07 19:48:00,
2013-02-07 12:53:00,41.1,6.2,30.09,ESE,116,5.0,9.0,23,0.00,,,0.00,633,WeatherCatV1.12B45,2013-02-07 19:53:00,
2013-02-07 12:58:00,41.2,5.3,30.09,East,92,6.0,6.0,22,0.00,,,0.00,630,WeatherCatV1.12B45,2013-02-07 19:58:00,
2013-02-07 13:03:00,41.5,6.5,30.09,ESE,104,5.0,8.0,23,0.00,,,0.00,626,WeatherCatV1.12B45,2013-02-07 20:03:00,
2013-02-07 13:08:00,42.1,6.0,30.09,ESE,102,9.0,12.0,22,0.00,,,0.00,621,WeatherCatV1.12B45,2013-02-07 20:08:00,
2013-02-07 13:13:00,41.9,4.9,30.09,SE,124,7.0,7.0,21,0.00,,,0.00,616,WeatherCatV1.12B45,2013-02-07 20:13:00,
2013-02-07 13:18:00,42.1,6.0,30.08,ESE,109,6.0,7.0,22,0.00,,,0.00,640,WeatherCatV1.12B45,2013-02-07 20:18:00,
2013-02-07 13:23:00,42.2,6.1,30.08,NE,55,7.0,8.0,22,0.00,,,0.00,635,WeatherCatV1.12B45,2013-02-07 20:23:00,
2013-02-07 13:28:00,42.2,5.1,30.08,ESE,121,3.0,12.0,21,0.00,,,0.00,630,WeatherCatV1.12B45,2013-02-07 20:28:00,
2013-02-07 13:33:00,42.2,7.1,30.08,ESE,121,10.0,10.0,23,0.00,,,0.00,621,WeatherCatV1.12B45,2013-02-07 20:33:00,
2013-02-07 13:38:00,42.5,5.4,30.08,East,95,2.0,7.0,21,0.00,,,0.00,612,WeatherCatV1.12B45,2013-02-07 20:38:00,
2013-02-07 13:43:00,42.6,5.4,30.08,SE,140,2.0,2.0,21,0.00,,,0.00,607,WeatherCatV1.12B45,2013-02-07 20:43:00,
2013-02-07 13:48:00,42.6,6.5,30.07,ESE,107,10.0,10.0,22,0.00,,,0.00,598,WeatherCatV1.12B45,2013-02-07 20:48:00,
2013-02-07 13:53:00,42.8,5.6,30.07,ESE,113,6.0,8.0,21,0.00,,,0.00,589,WeatherCatV1.12B45,2013-02-07 20:53:00,
2013-02-07 13:58:00,42.9,5.7,30.07,East,93,0.0,8.0,21,0.00,,,0.00,581,WeatherCatV1.12B45,2013-02-07 20:58:00,
2013-02-07 14:03:00,43.2,7.0,30.07,ESE,102,7.0,7.0,22,0.00,,,0.00,574,WeatherCatV1.12B45,2013-02-07 21:03:00,
2013-02-07 14:08:00,43.5,7.2,30.07,ENE,58,0.0,6.0,22,0.00,,,0.00,563,WeatherCatV1.12B45,2013-02-07 21:08:00,
2013-02-07 14:13:00,43.9,7.5,30.07,SE,138,6.0,14.0,22,0.00,,,0.00,556,WeatherCatV1.12B45,2013-02-07 21:13:00,
2013-02-07 14:18:00,43.8,7.5,30.06,ESE,116,5.0,8.0,22,0.00,,,0.00,544,WeatherCatV1.12B45,2013-02-07 21:18:00,
2013-02-07 14:23:00,43.9,7.5,30.06,SE,133,7.0,7.0,22,0.00,,,0.00,533,WeatherCatV1.12B45,2013-02-07 21:23:00,
2013-02-07 14:28:00,43.6,7.3,30.06,SE,124,1.0,6.0,22,0.00,,,0.00,523,WeatherCatV1.12B45,2013-02-07 21:28:00,
2013-02-07 14:33:00,43.8,8.4,30.06,SSE,162,5.0,10.0,23,0.00,,,0.00,509,WeatherCatV1.12B45,2013-02-07 21:33:00,
2013-02-07 14:38:00,43.5,8.2,30.06,SSE,161,10.0,11.0,23,0.00,,,0.00,498,WeatherCatV1.12B45,2013-02-07 21:38:00,
2013-02-07 14:43:00,43.2,7.9,30.06,SSE,164,6.0,11.0,23,0.00,,,0.00,486,WeatherCatV1.12B45,2013-02-07 21:43:00,
2013-02-07 14:48:00,43.1,7.9,30.06,SSE,147,8.0,10.0,23,0.00,,,0.00,472,WeatherCatV1.12B45,2013-02-07 21:48:00,
2013-02-07 14:53:00,42.9,9.5,30.06,SSE,160,8.0,11.0,25,0.00,,,0.00,461,WeatherCatV1.12B45,2013-02-07 21:53:00,
2013-02-07 14:58:00,42.8,9.4,30.06,SSE,168,9.0,14.0,25,0.00,,,0.00,445,WeatherCatV1.12B45,2013-02-07 21:58:00,
2013-02-07 15:03:00,41.8,9.5,30.06,SSE,160,5.0,14.0,26,0.00,,,0.00,433,WeatherCatV1.12B45,2013-02-07 22:03:00,
2013-02-07 15:08:00,41.1,9.7,30.06,SE,145,10.0,12.0,27,0.00,,,0.00,419,WeatherCatV1.12B45,2013-02-07 22:08:00,
2013-02-07 15:13:00,41.1,8.9,30.06,SE,140,7.0,16.0,26,0.00,,,0.00,405,WeatherCatV1.12B45,2013-02-07 22:13:00,
2013-02-07 15:18:00,41.1,8.9,30.06,SSE,157,8.0,13.0,26,0.00,,,0.00,391,WeatherCatV1.12B45,2013-02-07 22:18:00,
2013-02-07 15:23:00,41.1,8.9,30.06,SE,128,12.0,15.0,26,0.00,,,0.00,377,WeatherCatV1.12B45,2013-02-07 22:23:00,
2013-02-07 15:28:00,40.5,8.3,30.06,SSE,160,11.0,16.0,26,0.00,,,0.00,361,WeatherCatV1.12B45,2013-02-07 22:28:00,
2013-02-07 15:33:00,39.3,8.1,30.06,SSE,147,12.0,18.0,27,0.00,,,0.00,347,WeatherCatV1.12B45,2013-02-07 22:33:00,
2013-02-07 15:38:00,39.3,8.1,30.06,SSE,147,8.0,11.0,27,0.00,,,0.00,331,WeatherCatV1.12B45,2013-02-07 22:38:00,
2013-02-07 15:43:00,39.2,6.4,30.06,SE,144,11.0,13.0,25,0.00,,,0.00,315,WeatherCatV1.12B45,2013-02-07 22:43:00,
2013-02-07 15:48:00,39.1,8.8,30.06,SSE,158,10.0,10.0,28,0.00,,,0.00,299,WeatherCatV1.12B45,2013-02-07 22:48:00,
2013-02-07 15:53:00,39.2,7.2,30.06,SSE,151,1.0,10.0,26,0.00,,,0.00,269,WeatherCatV1.12B45,2013-02-07 22:53:00,
2013-02-07 15:58:00,39.2,7.2,30.06,SE,141,7.0,11.0,26,0.00,,,0.00,255,WeatherCatV1.12B45,2013-02-07 22:58:00,
2013-02-07 16:03:00,38.9,7.0,30.06,SSE,161,5.0,12.0,26,0.00,,,0.00,239,WeatherCatV1.12B45,2013-02-07 23:03:00,
2013-02-07 16:08:00,38.5,7.5,30.06,South,175,8.0,13.0,27,0.00,,,0.00,225,WeatherCatV1.12B45,2013-02-07 23:08:00,
2013-02-07 16:13:00,38.0,7.0,30.06,SSE,160,13.0,17.0,27,0.00,,,0.00,211,WeatherCatV1.12B45,2013-02-07 23:13:00,
2013-02-07 16:18:00,37.8,6.9,30.06,SE,130,6.0,13.0,27,0.00,,,0.00,195,WeatherCatV1.12B45,2013-02-07 23:18:00,
2013-02-07 16:23:00,37.3,7.2,30.06,SSE,148,9.0,16.0,28,0.00,,,0.00,179,WeatherCatV1.12B45,2013-02-07 23:23:00,
2013-02-07 16:28:00,36.9,6.9,30.06,South,172,5.0,13.0,28,0.00,,,0.00,102,WeatherCatV1.12B45,2013-02-07 23:28:00,
2013-02-07 16:33:00,35.9,6.0,30.07,SSE,155,10.0,14.0,28,0.00,,,0.00,23,WeatherCatV1.12B45,2013-02-07 23:33:00,
2013-02-07 16:38:00,35.3,7.7,30.07,SE,138,9.0,17.0,31,0.00,,,0.00,21,WeatherCatV1.12B45,2013-02-07 23:38:00,
2013-02-07 16:43:00,34.7,7.2,30.07,South,174,4.0,13.0,31,0.00,,,0.00,21,WeatherCatV1.12B45,2013-02-07 23:43:00,
2013-02-07 16:48:00,34.4,7.6,30.07,South,171,11.0,13.0,32,0.00,,,0.00,21,WeatherCatV1.12B45,2013-02-07 23:48:00,
2013-02-07 16:53:00,34.3,8.2,30.07,SSE,155,10.0,12.0,33,0.00,,,0.00,19,WeatherCatV1.12B45,2013-02-07 23:53:00,
2013-02-07 16:58:00,34.0,8.0,30.07,SE,128,7.0,11.0,33,0.00,,,0.00,18,WeatherCatV1.12B45,2013-02-07 23:58:00,
2013-02-07 17:03:00,34.0,8.0,30.08,South,186,5.0,11.0,33,0.00,,,0.00,18,WeatherCatV1.12B45,2013-02-08 00:03:00,
2013-02-07 17:08:00,33.7,6.3,30.08,SW,224,3.0,3.0,31,0.00,,,0.00,16,WeatherCatV1.12B45,2013-02-08 00:08:00,
2013-02-07 17:13:00,33.5,7.5,30.08,SW,226,0.0,0.0,33,0.00,,,0.00,14,WeatherCatV1.12B45,2013-02-08 00:13:00,
2013-02-07 17:18:00,32.9,7.6,30.08,SW,224,0.0,3.0,34,0.00,,,0.00,14,WeatherCatV1.12B45,2013-02-08 00:18:00,
2013-02-07 17:23:00,32.5,6.6,30.08,SSW,198,1.0,2.0,33,0.00,,,0.00,11,WeatherCatV1.12B45,2013-02-08 00:23:00,
2013-02-07 17:28:00,32.5,6.6,30.08,SSW,205,0.0,1.0,33,0.00,,,0.00,9,WeatherCatV1.12B45,2013-02-08 00:28:00,
2013-02-07 17:33:00,32.4,7.8,30.08,SSW,205,0.0,1.0,35,0.00,,,0.00,7,WeatherCatV1.12B45,2013-02-08 00:33:00,
2013-02-07 17:38:00,31.6,7.7,30.08,SSW,206,3.0,3.0,36,0.00,,,0.00,5,WeatherCatV1.12B45,2013-02-08 00:38:00,
2013-02-07 17:43:00,30.4,7.3,30.08,SSW,206,1.0,4.0,37,0.00,,,0.00,5,WeatherCatV1.12B45,2013-02-08 00:43:00,
2013-02-07 17:48:00,29.4,8.1,30.08,SW,226,5.0,5.0,40,0.00,,,0.00,0,WeatherCatV1.12B45,2013-02-08 00:48:00,
2013-02-07 17:53:00,28.4,7.7,30.08,SW,233,1.0,3.0,41,0.00,,,0.00,0,WeatherCatV1.12B45,2013-02-08 00:53:00,
2013-02-07 17:58:00,27.6,8.1,30.08,SW,233,0.0,2.0,43,0.00,,,0.00,0,WeatherCatV1.12B45,2013-02-08 00:58:00,
2013-02-07 18:03:00,26.9,7.4,30.08,SW,233,0.0,0.0,43,0.00,,,0.00,0,WeatherCatV1.12B45,2013-02-08 01:03:00,
2013-02-07 18:08:00,26.3,6.9,30.08,SW,233,3.0,5.0,43,0.00,,,0.00,0,WeatherCatV1.12B45,2013-02-08 01:08:00,
2013-02-07 18:13:00,25.8,5.9,30.08,SW,233,0.0,0.0,42,0.00,,,0.00,0,WeatherCatV1.12B45,2013-02-08 01:13:00,
2013-02-07 18:18:00,25.7,4.8,30.08,WSW,253,2.0,3.0,40,0.00,,,0.00,0,WeatherCatV1.12B45,2013-02-08 01:18:00,
2013-02-07 18:23:00,25.6,4.1,30.08,WSW,253,3.0,5.0,39,0.00,,,0.00,0,WeatherCatV1.12B45,2013-02-08 01:23:00,
2013-02-07 18:28:00,25.4,4.5,30.08,WSW,253,0.0,0.0,40,0.00,,,0.00,0,WeatherCatV1.12B45,2013-02-08 01:28:00,
2013-02-07 18:33:00,25.4,3.9,30.08,WSW,253,3.0,3.0,39,0.00,,,0.00,0,WeatherCatV1.12B45,2013-02-08 01:33:00,
2013-02-07 18:38:00,25.1,4.8,30.08,WSW,253,3.0,3.0,41,0.00,,,0.00,0,WeatherCatV1.12B45,2013-02-08 01:38:00,
2013-02-07 18:43:00,24.7,2.7,30.08,WSW,253,2.0,2.0,38,0.00,,,0.00,0,WeatherCatV1.12B45,2013-02-08 01:43:00,
2013-02-07 18:48:00,24.7,2.7,30.09,WSW,253,0.0,0.0,38,0.00,,,0.00,0,WeatherCatV1.12B45,2013-02-08 01:48:00,
2013-02-07 18:53:00,24.5,2.6,30.09,WSW,251,0.0,1.0,38,0.00,,,0.00,0,WeatherCatV1.12B45,2013-02-08 01:53:00,
2013-02-07 18:58:00,24.4,1.3,30.09,WSW,251,0.0,3.0,36,0.00,,,0.00,0,WeatherCatV1.12B45,2013-02-08 01:58:00,
2013-02-07 19:03:00,24.4,1.9,30.09,WSW,251,0.0,0.0,37,0.00,,,0.00,0,WeatherCatV1.12B45,2013-02-08 02:03:00,
2013-02-07 19:08:00,24.4,0.1,30.09,WSW,251,1.0,2.0,34,0.00,,,0.00,0,WeatherCatV1.12B45,2013-02-08 02:08:00,
2013-02-07 19:13:00,24.5,0.8,30.09,WSW,239,3.0,3.0,35,0.00,,,0.00,0,WeatherCatV1.12B45,2013-02-08 02:13:00,
2013-02-07 19:18:00,24.4,1.9,30.09,SSW,206,0.0,0.0,37,0.00,,,0.00,0,WeatherCatV1.12B45,2013-02-08 02:18:00,
2013-02-07 19:23:00,24.4,0.1,30.09,WNW,282,5.0,6.0,34,0.00,,,0.00,0,WeatherCatV1.12B45,2013-02-08 02:23:00,
2013-02-07 19:28:00,24.5,0.8,30.09,WNW,282,0.0,0.0,35,0.00,,,0.00,0,WeatherCatV1.12B45,2013-02-08 02:28:00,
2013-02-07 19:33:00,24.4,2.5,30.09,WNW,282,0.0,0.0,38,0.00,,,0.00,0,WeatherCatV1.12B45,2013-02-08 02:33:00,
2013-02-07 19:38:00,24.1,1.6,30.09,WNW,282,0.0,0.0,37,0.00,,,0.00,0,WeatherCatV1.12B45,2013-02-08 02:38:00,
2013-02-07 19:43:00,23.8,0.2,30.09,WNW,282,1.0,3.0,35,0.00,,,0.00,0,WeatherCatV1.12B45,2013-02-08 02:43:00,
2013-02-07 19:48:00,23.6,1.2,30.09,WNW,282,0.0,0.0,37,0.00,,,0.00,0,WeatherCatV1.12B45,2013-02-08 02:48:00,
2013-02-07 19:53:00,23.3,0.3,30.09,WNW,282,0.0,4.0,36,0.00,,,0.00,0,WeatherCatV1.12B45,2013-02-08 02:53:00,
2013-02-07 19:58:00,23.2,-1.0,30.09,West,270,1.0,5.0,34,0.00,,,0.00,0,WeatherCatV1.12B45,2013-02-08 02:58:00,
2013-02-07 20:03:00,23.3,0.3,30.09,West,270,0.0,3.0,36,0.00,,,0.00,0,WeatherCatV1.12B45,2013-02-08 03:03:00,
2013-02-07 20:08:00,23.3,-0.9,30.09,West,270,0.0,0.0,34,0.00,,,0.00,0,WeatherCatV1.12B45,2013-02-08 03:08:00,
2013-02-07 20:20:00,23.0,-0.5,30.10,West,270,1.0,1.0,35,0.00,,,0.00,0,WeatherCatV1.12B45,2013-02-08 03:20:00,
2013-02-07 20:25:00,22.9,-0.6,30.10,West,270,0.0,3.0,35,0.00,,,0.00,0,WeatherCatV1.12B45,2013-02-08 03:25:00,
2013-02-07 20:30:00,22.9,0.6,30.10,West,270,3.0,3.0,37,0.00,,,0.00,0,WeatherCatV1.12B45,2013-02-08 03:30:00,
2013-02-07 20:35:00,22.4,0.7,30.10,West,270,0.0,3.0,38,0.00,,,0.00,0,WeatherCatV1.12B45,2013-02-08 03:35:00,
2013-02-07 20:40:00,22.1,2.0,30.10,West,270,4.0,5.0,41,0.00,,,0.00,0,WeatherCatV1.12B45,2013-02-08 03:40:00,
2013-02-07 20:45:00,21.4,2.9,30.09,West,270,0.0,0.0,44,0.00,,,0.00,0,WeatherCatV1.12B45,2013-02-08 03:45:00,
2013-02-07 20:50:00,21.0,2.5,30.09,West,270,0.0,0.0,44,0.00,,,0.00,0,WeatherCatV1.12B45,2013-02-08 03:50:00,
2013-02-07 20:55:00,20.6,3.6,30.09,West,270,0.0,2.0,47,0.00,,,0.00,0,WeatherCatV1.12B45,2013-02-08 03:55:00,
2013-02-07 21:00:00,20.3,2.9,30.09,West,270,0.0,0.0,46,0.00,,,0.00,0,WeatherCatV1.12B45,2013-02-08 04:00:00,
2013-02-07 21:05:00,20.2,3.2,30.09,West,270,0.0,2.0,47,0.00,,,0.00,0,WeatherCatV1.12B45,2013-02-08 04:05:00,
2013-02-07 21:10:00,20.3,3.3,30.09,West,270,1.0,1.0,47,0.00,,,0.00,0,WeatherCatV1.12B45,2013-02-08 04:10:00,
2013-02-07 21:15:00,20.5,4.4,30.09,West,270,3.0,3.0,49,0.00,,,0.00,0,WeatherCatV1.12B45,2013-02-08 04:15:00,
2013-02-07 21:20:00,20.0,4.4,30.09,West,270,0.0,0.0,50,0.00,,,0.00,0,WeatherCatV1.12B45,2013-02-08 04:20:00,
2013-02-07 21:25:00,19.7,4.1,30.09,West,270,0.0,0.0,50,0.00,,,0.00,0,WeatherCatV1.12B45,2013-02-08 04:25:00,
2013-02-07 21:30:00,19.2,4.9,30.10,West,270,3.0,3.0,53,0.00,,,0.00,0,WeatherCatV1.12B45,2013-02-08 04:30:00,
2013-02-07 21:35:00,18.6,5.2,30.10,West,270,0.0,5.0,55,0.00,,,0.00,0,WeatherCatV1.12B45,2013-02-08 04:35:00,
2013-02-07 21:40:00,18.4,4.6,30.10,West,270,0.0,0.0,54,0.00,,,0.00,0,WeatherCatV1.12B45,2013-02-08 04:40:00,
2013-02-07 21:45:00,18.1,5.1,30.09,West,270,0.0,1.0,56,0.00,,,0.00,0,WeatherCatV1.12B45,2013-02-08 04:45:00,
2013-02-07 21:50:00,18.1,5.1,30.09,West,270,0.0,0.0,56,0.00,,,0.00,0,WeatherCatV1.12B45,2013-02-08 04:50:00,
2013-02-07 21:55:00,18.3,4.9,30.09,West,270,0.0,0.0,55,0.00,,,0.00,0,WeatherCatV1.12B45,2013-02-08 04:55:00,
2013-02-07 22:00:00,18.3,4.9,30.09,West,270,0.0,0.0,55,0.00,,,0.00,0,WeatherCatV1.12B45,2013-02-08 05:00:00,
2013-02-07 22:05:00,17.8,4.4,30.09,West,270,0.0,1.0,55,0.00,,,0.00,0,WeatherCatV1.12B45,2013-02-08 05:05:00,
2013-02-07 22:10:00,17.7,4.3,30.09,West,270,0.0,0.0,55,0.00,,,0.00,0,WeatherCatV1.12B45,2013-02-08 05:10:00,
2013-02-07 22:15:00,17.7,4.7,30.09,West,270,0.0,2.0,56,0.00,,,0.00,0,WeatherCatV1.12B45,2013-02-08 05:15:00,
2013-02-07 22:20:00,17.5,3.3,30.09,West,270,2.0,3.0,53,0.00,,,0.00,0,WeatherCatV1.12B45,2013-02-08 05:20:00,
2013-02-07 22:25:00,17.5,3.7,30.09,West,270,3.0,3.0,54,0.00,,,0.00,0,WeatherCatV1.12B45,2013-02-08 05:25:00,
2013-02-07 22:30:00,17.3,2.7,30.09,West,270,0.0,0.0,52,0.00,,,0.00,0,WeatherCatV1.12B45,2013-02-08 05:30:00,
2013-02-07 22:35:00,17.7,2.3,30.09,West,270,0.0,0.0,50,0.00,,,0.00,0,WeatherCatV1.12B45,2013-02-08 05:35:00,
2013-02-07 22:40:00,17.8,1.5,30.09,West,270,2.0,4.0,48,0.00,,,0.00,0,WeatherCatV1.12B45,2013-02-08 05:40:00,
2013-02-07 22:45:00,17.8,1.9,30.09,West,270,1.0,3.0,49,0.00,,,0.00,0,WeatherCatV1.12B45,2013-02-08 05:45:00,
2013-02-07 22:50:00,17.8,1.9,30.09,West,270,0.0,2.0,49,0.00,,,0.00,0,WeatherCatV1.12B45,2013-02-08 05:50:00,
2013-02-07 22:55:00,17.8,1.5,30.09,West,270,0.0,0.0,48,0.00,,,0.00,0,WeatherCatV1.12B45,2013-02-08 05:55:00,
2013-02-07 23:00:00,17.7,1.8,30.09,West,270,0.0,2.0,49,0.00,,,0.00,0,WeatherCatV1.12B45,2013-02-08 06:00:00,
2013-02-07 23:05:00,17.7,1.4,30.09,West,270,0.0,0.0,48,0.00,,,0.00,0,WeatherCatV1.12B45,2013-02-08 06:05:00,
2013-02-07 23:10:00,17.7,2.3,30.09,West,270,0.0,0.0,50,0.00,,,0.00,0,WeatherCatV1.12B45,2013-02-08 06:10:00,
2013-02-07 23:15:00,18.1,2.2,30.09,West,270,2.0,3.0,49,0.00,,,0.00,0,WeatherCatV1.12B45,2013-02-08 06:15:00,
2013-02-07 23:20:00,18.3,2.8,30.09,West,280,2.0,3.0,50,0.00,,,0.00,0,WeatherCatV1.12B45,2013-02-08 06:20:00,
2013-02-07 23:25:00,18.0,3.8,30.09,West,280,0.0,3.0,53,0.00,,,0.00,0,WeatherCatV1.12B45,2013-02-08 06:25:00,
2013-02-07 23:30:00,18.0,3.4,30.08,West,280,0.0,0.0,52,0.00,,,0.00,0,WeatherCatV1.12B45,2013-02-08 06:30:00,
2013-02-07 23:35:00,18.1,3.9,30.08,West,278,0.0,0.0,53,0.00,,,0.00,0,WeatherCatV1.12B45,2013-02-08 06:35:00,
2013-02-07 23:40:00,18.1,4.3,30.08,West,280,2.0,2.0,54,0.00,,,0.00,0,WeatherCatV1.12B45,2013-02-08 06:40:00,
2013-02-07 23:45:00,18.0,5.0,30.08,West,280,0.0,0.0,56,0.00,,,0.00,0,WeatherCatV1.12B45,2013-02-08 06:45:00,
2013-02-07 23:50:00,18.0,5.0,30.08,West,280,0.0,2.0,56,0.00,,,0.00,0,WeatherCatV1.12B45,2013-02-08 06:50:00,
2013-02-07 23:55:00,18.3,5.3,30.08,West,280,0.0,0.0,56,0.00,,,0.00,0,WeatherCatV1.12B45,2013-02-08 06:55:00,